This demonstration page uses our WeatherBlox Daily Observations layout. Learn more.

Left ArrowRight Arrow

39.01783, -85.05884

Hourly Observations for November 29, 2020

Temp ( °F °C ) Dew Point ( °F °C ) Humidity (%) Winds ( mph kmh ) Pressure ( in mb ) Visibility ( mi km ) Precip ( " mm )
12:52 am 00:52 Clear 36 2.2 29 -1.7 76 76 Calm 30.15 1021 10 16.0934 0 0
1:52 am 01:52 Clear 32 0 28 -2.2 85 85 Calm 30.13 1020 9 14.48406 0 0
2:52 am 02:52 Clear 30 -1.1 27 -2.8 88 88 S 7 11 30.13 1020 9 14.48406 0 0
3:52 am 03:52 Clear 33 0.6 26 -3.3 75 75 S 6 9 30.14 1021 10 16.0934 0 0
4:52 am 04:52 Clear 35 1.7 26 -3.3 70 70 Calm 30.12 1020 10 16.0934 0 0
5:52 am 05:52 Clear 33 0.6 27 -2.8 78 78 Calm 30.12 1020 10 16.0934 0 0
6:52 am 06:52 Mostly Clear 32 0 26 -3.3 79 79 Calm 30.14 1021 10 16.0934 0 0
7:52 am 07:52 Partly Cloudy 31 -0.6 26 -3.3 82 82 NNE 5 7 30.13 1020 10 16.0934 0 0
8:52 am 08:52 Partly Cloudy 35 1.7 29 -1.7 78 78 Calm 30.13 1020 10 16.0934 0 0
9:52 am 09:52 Partly Cloudy 42 5.6 33 0.6 71 71 Calm 30.1 1019 10 16.0934 0 0
10:52 am 10:52 Partly Cloudy 46 7.8 33 0.6 61 61 SSE 7 11 30.09 1019 10 16.0934 0 0
11:52 am 11:52 Partly Cloudy 49 9.4 31 -0.6 50 50 SE 8 13 30.05 1018 10 16.0934 0 0
12:52 pm 12:52 Mostly Cloudy 52 11.1 30 -1.1 43 43 VRB 6 9 30 1016 10 16.0934 0 0
1:52 pm 13:52 Cloudy 54 12.2 33 0.6 45 45 S 8 13 29.99 1016 10 16.0934 0 0
2:52 pm 14:52 Cloudy 53 11.7 32 0 45 45 SE 5 7 29.95 1014 10 16.0934 0 0
3:52 pm 15:52 Cloudy 52 11.1 35 1.7 53 53 SE 6 9 29.93 1014 10 16.0934 0 0
4:52 pm 16:52 Mostly Cloudy 51 10.6 34 1.1 52 52 ESE 7 11 29.92 1013 10 16.0934 0 0
5:52 pm 17:52 Cloudy 48 8.9 35 1.7 61 61 SSE 3 6 29.91 1013 10 16.0934 0 0
6:52 pm 18:52 Cloudy 48 8.9 36 2.2 63 63 SSE 3 6 29.91 1013 10 16.0934 0 0
7:52 pm 19:52 Cloudy 47 8.3 36 2.2 66 66 Calm 29.89 1012 10 16.0934 0 0
8:52 pm 20:52 Cloudy 46 7.8 36 2.2 68 68 Calm 29.86 1011 10 16.0934 0 0
9:52 pm 21:52 Cloudy 46 7.8 36 2.2 68 68 Calm 29.84 1011 10 16.0934 0 0
10:52 pm 22:52 Cloudy 47 8.3 38 3.3 71 71 WNW 5 7 29.82 1010 10 16.0934 0.001 0.001
11:52 pm 23:52 Cloudy 47 8.3 35 1.7 63 63 NW 13 20 29.78 1009 10 16.0934 0.001 0.001

Powered by AerisWeather